Location: Grantsboro
(35.1404°N, 76.8424°W)
Time: 16:55:25
(UTC+00:00)

Meteor 2-5 Rocket - Pass Details

Date: 18 January 2020
Orbit: 834 x 911 km, 81.2° (Epoch: 21 February)

Event Time Altitude Azimuth Distance (km) Brightness Sun altitude
Exits shadow 10:31:25 35° 252° (WSW) 1,398 4.4 -20.8°
Drops below altitude 10° 10:35:59 10° 204° (SSW) 2,567 6.1 -19.9°
Sets 10:38:37 0° 196° (SSW) 3,512 6.9 -19.4°
